Glenwood, MN

7:27 PM CDT on September 24, 2017 (GMT -0500)
Glenwood Municipal

Weather History for KGHW - April, 2013

Change the Weather History Date:

Sunday, April 7, 2013

  Actual Average Record
Temperature  
Mean Temperature 37 °F -  
Max Temperature 42 °F 52 °F 81 °F (1988)
Min Temperature 32 °F 30 °F 8 °F (1997)
Degree Days  
Heating Degree Days 28    
Moisture  
Dew Point 31 °F    
Average Humidity 85    
Maximum Humidity 100    
Minimum Humidity 70    
Precipitation  
Precipitation 0.18 in - - ()
Sea Level Pressure  
Sea Level Pressure 29.83 in    
Wind  
Wind Speed 7 mph (ENE)    
Max Wind Speed 12 mph    
Max Gust Speed 17 mph    
Visibility 8 miles    
Events Rain    
Averages and records for this station are not official NWS values.
T = Trace of Precipitation, MM = Missing Value Source: NWS Daily Summary

Daily Weather History Graph

Daily Weather History Graph

Search for Another Location

Airport or City:

Trip Planner

Search our weather history database for the weather conditions in past years. The results will help you decide how hot, cold, wet, or windy it might be!

Date:

Astronomy

Apr. 07, 2013 Rise Set
Actual Time 6:49 AM CDT 7:57 PM CDT
Civil Twilight 6:19 AM CDT 8:28 PM CDT
Nautical Twilight 5:42 AM CDT 9:04 PM CDT
Astronomical Twilight 5:04 AM CDT 9:43 PM CDT
Moon 5:15 AM CDT (4/7) 5:24 PM CDT (4/7)
Length of Visible Light 14h 08m
Length of Day
13h 08m
Waning Crescent, 8% of the Moon is Illuminated
Apr 7
Waning Crescent
Apr 10
New
Apr 18
First Quarter
Apr 25
Full
May 2
Last Quarter

Hourly Weather History & Observations

Time (CDT) Temp. Windchill Dew Point Humidity Pressure Visibility Wind Dir Wind Speed Gust Speed Precip Events Conditions
12:13 AM 32.0 °F 23.0 °F 30.2 °F 93% 29.79 in 7.0 mi NW 11.5 mph - N/A   Mostly Cloudy
12:33 AM 33.8 °F 25.3 °F 30.2 °F 87% 29.79 in 7.0 mi NW 11.5 mph 17.3 mph N/A   Overcast
12:53 AM 33.8 °F 25.3 °F 30.2 °F 87% 29.80 in 7.0 mi NW 11.5 mph - N/A   Overcast
1:13 AM 32.0 °F 23.6 °F 30.2 °F 93% 29.80 in 7.0 mi NW 10.4 mph - N/A   Overcast
1:33 AM 32.0 °F 23.0 °F 30.2 °F 93% 29.80 in 10.0 mi NW 11.5 mph - N/A   Overcast
1:53 AM 32.0 °F 23.6 °F 30.2 °F 93% 29.81 in 10.0 mi NNW 10.4 mph - N/A   Overcast
2:13 AM 32.0 °F 24.8 °F 30.2 °F 93% 29.81 in 10.0 mi NW 8.1 mph - N/A   Overcast
2:33 AM 32.0 °F 23.0 °F 30.2 °F 93% 29.81 in 10.0 mi NNW 11.5 mph - N/A   Overcast
2:53 AM 32.0 °F 23.0 °F 30.2 °F 93% 29.82 in 10.0 mi NNW 11.5 mph - N/A   Overcast
3:13 AM 32.0 °F 24.2 °F 28.4 °F 87% 29.82 in 10.0 mi NNW 9.2 mph - N/A   Overcast
3:33 AM 32.0 °F 25.6 °F 28.4 °F 87% 29.82 in 10.0 mi NNW 6.9 mph - N/A   Overcast
3:53 AM 32.0 °F 27.5 °F 28.4 °F 87% 29.83 in 10.0 mi NNW 4.6 mph - N/A   Overcast
4:13 AM 32.0 °F 24.8 °F 28.4 °F 87% 29.83 in 10.0 mi North 8.1 mph - N/A   Overcast
4:33 AM 32.0 °F 24.8 °F 28.4 °F 87% 29.84 in 10.0 mi NW 8.1 mph - N/A   Overcast
4:53 AM 32.0 °F 27.5 °F 28.4 °F 87% 29.84 in 10.0 mi NW 4.6 mph - N/A   Overcast
5:14 AM 32.0 °F 24.8 °F 28.4 °F 87% 29.85 in 10.0 mi NW 8.1 mph - N/A   Overcast
5:33 AM 32.0 °F 25.6 °F 28.4 °F 87% 29.85 in 10.0 mi North 6.9 mph - N/A   Overcast
5:53 AM 32.0 °F 25.6 °F 28.4 °F 87% 29.85 in 10.0 mi North 6.9 mph - N/A   Overcast
6:14 AM 32.0 °F 27.5 °F 28.4 °F 87% 29.86 in 10.0 mi NW 4.6 mph - N/A   Overcast
6:33 AM 32.0 °F 27.5 °F 28.4 °F 87% 29.86 in 10.0 mi NNW 4.6 mph - N/A   Overcast
6:53 AM 32.0 °F 26.4 °F 28.4 °F 87% 29.87 in 10.0 mi NW 5.8 mph - N/A   Overcast
7:14 AM 32.0 °F - 28.4 °F 87% 29.88 in 10.0 mi Calm Calm - N/A   Overcast
7:33 AM 32.0 °F 28.7 °F 28.4 °F 87% 29.88 in 10.0 mi WNW 3.5 mph - N/A   Overcast
7:53 AM 32.0 °F - 28.4 °F 87% 29.89 in 10.0 mi Calm Calm - N/A   Overcast
8:14 AM 32.0 °F - 28.4 °F 87% 29.89 in 10.0 mi Calm Calm - N/A   Overcast
8:33 AM 32.0 °F - 28.4 °F 87% 29.88 in 10.0 mi Calm Calm - N/A   Overcast
8:53 AM 33.8 °F - 28.4 °F 81% 29.89 in 10.0 mi Calm Calm - N/A   Overcast
9:14 AM 33.8 °F - 28.4 °F 81% 29.89 in 10.0 mi Calm Calm - N/A   Overcast
9:33 AM 33.8 °F - 28.4 °F 81% 29.89 in 10.0 mi Calm Calm - N/A   Overcast
9:53 AM 33.8 °F - 28.4 °F 81% 29.89 in 10.0 mi Calm Calm - N/A   Overcast
10:13 AM 33.8 °F - 28.4 °F 81% 29.89 in 10.0 mi Calm Calm - N/A   Overcast
10:33 AM 33.8 °F - 28.4 °F 81% 29.90 in 10.0 mi Calm Calm - N/A   Overcast
10:53 AM 33.8 °F - 28.4 °F 81% 29.90 in 10.0 mi Calm Calm - N/A   Overcast
11:13 AM 35.6 °F - 28.4 °F 75% 29.90 in 10.0 mi Calm Calm - N/A   Overcast
11:33 AM 33.8 °F - 28.4 °F 81% 29.90 in 10.0 mi Calm Calm - N/A   Overcast
11:53 AM 35.6 °F - 28.4 °F 75% 29.90 in 10.0 mi Calm Calm - N/A   Overcast
12:13 PM 35.6 °F 32.8 °F 30.2 °F 81% 29.89 in 10.0 mi ESE 3.5 mph - N/A   Overcast
12:34 PM 35.6 °F 31.7 °F 30.2 °F 81% 29.89 in 10.0 mi ESE 4.6 mph - N/A   Overcast
12:53 PM 37.4 °F 33.8 °F 30.2 °F 75% 29.88 in 10.0 mi SE 4.6 mph - N/A   Overcast
1:13 PM 35.6 °F 32.8 °F 30.2 °F 81% 29.88 in 10.0 mi SE 3.5 mph - N/A   Overcast
1:34 PM 37.4 °F 33.8 °F 30.2 °F 75% 29.87 in 10.0 mi SSE 4.6 mph - N/A   Overcast
1:53 PM 37.4 °F 33.8 °F 30.2 °F 75% 29.87 in 10.0 mi SSE 4.6 mph - N/A   Overcast
2:13 PM 37.4 °F 33.8 °F 30.2 °F 75% 29.86 in 10.0 mi ESE 4.6 mph - N/A   Overcast
2:34 PM 39.2 °F 34.2 °F 30.2 °F 70% 29.84 in 10.0 mi ESE 6.9 mph - N/A   Overcast
2:53 PM 41.0 °F 35.2 °F 32.0 °F 70% 29.83 in 10.0 mi East 9.2 mph - N/A   Mostly Cloudy
3:13 PM 41.0 °F 35.2 °F 33.8 °F 76% 29.81 in 10.0 mi ESE 9.2 mph - N/A   Scattered Clouds
3:34 PM 42.8 °F 37.5 °F 33.8 °F 70% 29.81 in 10.0 mi ESE 9.2 mph - N/A   Scattered Clouds
3:53 PM 42.8 °F 37.5 °F 33.8 °F 70% 29.80 in 10.0 mi ESE 9.2 mph - N/A   Scattered Clouds
4:13 PM 42.8 °F 37.0 °F 33.8 °F 70% 29.79 in 10.0 mi ESE 10.4 mph 17.3 mph N/A   Clear
4:34 PM 42.8 °F 37.5 °F 33.8 °F 70% 29.80 in 10.0 mi SE 9.2 mph - N/A   Clear
4:53 PM 41.0 °F 34.3 °F 33.8 °F 76% 29.80 in 10.0 mi SSE 11.5 mph - N/A   Scattered Clouds
5:13 PM 42.8 °F 37.0 °F 33.8 °F 70% 29.80 in 10.0 mi SE 10.4 mph - N/A   Clear
5:33 PM 42.8 °F 37.5 °F 33.8 °F 70% 29.79 in 10.0 mi SE 9.2 mph - N/A   Clear
5:53 PM 41.0 °F 34.3 °F 33.8 °F 76% 29.80 in 10.0 mi SSE 11.5 mph - N/A   Scattered Clouds
6:13 PM 39.2 °F 33.0 °F 33.8 °F 81% 29.80 in 10.0 mi SSE 9.2 mph - N/A   Scattered Clouds
6:33 PM 39.2 °F 32.0 °F 35.6 °F 87% 29.80 in 10.0 mi SSE 11.5 mph - N/A   Scattered Clouds
6:53 PM 39.2 °F 33.6 °F 35.6 °F 87% 29.80 in 10.0 mi SSE 8.1 mph - N/A   Light Drizzle
7:13 PM 39.2 °F 33.6 °F 35.6 °F 87% 29.80 in 10.0 mi SSE 8.1 mph - N/A   Light Drizzle
7:33 PM 37.4 °F 32.8 °F 35.6 °F 93% 29.79 in 7.0 mi SE 5.8 mph - N/A Rain Rain
7:53 PM 37.4 °F 32.8 °F 35.6 °F 93% 29.78 in 7.0 mi ESE 5.8 mph - N/A   Drizzle
8:13 PM 37.4 °F 32.1 °F 35.6 °F 93% 29.77 in 4.0 mi ENE 6.9 mph - N/A Rain Rain
8:33 PM 37.4 °F 31.4 °F 35.6 °F 93% 29.76 in 4.0 mi East 8.1 mph - 0.02 in Rain Rain
8:53 PM 37.4 °F 32.1 °F 35.6 °F 93% 29.77 in 4.0 mi East 6.9 mph - 0.04 in Rain Rain
9:14 PM 37.4 °F 33.8 °F 35.6 °F 93% 29.78 in 3.0 mi East 4.6 mph - 0.04 in Rain Light Rain
9:33 PM 35.6 °F 30.7 °F 35.6 °F 100% 29.77 in 2.5 mi ENE 5.8 mph - 0.07 in Rain Rain
9:53 PM 37.4 °F 32.8 °F 35.6 °F 93% 29.77 in 2.5 mi ENE 5.8 mph - 0.11 in Rain Light Rain
10:14 PM 35.6 °F 29.9 °F 35.6 °F 100% 29.76 in 2.5 mi ENE 6.9 mph - 0.01 in Rain Rain
10:33 PM 35.6 °F 29.9 °F 35.6 °F 100% 29.76 in 2.5 mi ENE 6.9 mph - 0.01 in   Light Drizzle
10:53 PM 37.4 °F 32.1 °F 35.6 °F 93% 29.75 in 2.0 mi ENE 6.9 mph - 0.02 in   Drizzle
11:14 PM 35.6 °F 30.7 °F 35.6 °F 100% 29.75 in 1.5 mi NE 5.8 mph - N/A   Drizzle
11:33 PM 35.6 °F 29.2 °F 35.6 °F 100% 29.74 in 1.2 mi ENE 8.1 mph - N/A   Drizzle
11:53 PM 35.6 °F 29.9 °F 35.6 °F 100% 29.74 in 1.2 mi NE 6.9 mph - 0.01 in   Drizzle